Wind_Speed
37 37 39 42 44 45 44 43 44 44 45 44 42 40 39 38 37 36 36 35 35 34 34 34 34 35 37 39 40 40 40 40 40 40 39 38 37 35 33 32 30 27 25 23 21 19 18 16 14 13 11 11 9 8 8 7 6 6 7 7 5 4 3 3 2 1 1 1 2 2 2 2 2 2 2 2 2 2 2 3 4 4 5 6 7 8 9 11
38 38 40 43 45 45 44 44 45 46 46 45 43 41 40 39 38 38 37 36 35 35 35 35 35 36 37 38 39 40 40 40 40 40 39 39 37 35 33 32 30 27 25 23 21 20 18 16 15 14 13 11 10 9 8 8 7 7 8 7 6 5 4 3 3 2 2 2 2 2 2 2 2 2 2 2 2 2 2 3 3 4 5 6 6 7 9 10
39 39 40 43 45 46 45 45 47 48 47 45 43 42 41 40 39 38 37 36 36 35 35 36 36 36 37 38 39 40 40 40 40 40 39 38 37 36 34 32 30 28 26 24 22 20 18 17 16 14 14 13 12 10 9 9 9 9 9 7 6 6 4 4 4 3 3 3 3 2 2 2 2 2 2 2 2 2 2 3 3 4 5 5 6 7 8 9
40 40 41 43 45 46 46 47 48 49 48 46 44 43 42 41 40 39 38 37 36 36 36 36 36 36 37 38 39 40 40 40 39 39 39 38 37 35 34 32 30 28 26 25 23 21 20 18 17 16 15 14 13 12 11 10 10 10 8 7 7 7 5 5 4 4 4 3 3 3 2 2 2 2 2 2 2 2 2 3 3 4 5 6 6 7 8 9
41 42 42 44 45 46 47 48 50 50 48 46 45 44 43 42 41 40 39 38 37 36 36 35 36 36 37 38 39 39 40 39 39 39 38 38 37 35 34 32 30 29 27 26 24 22 21 19 18 17 16 16 15 13 12 12 12 12 10 10 9 7 6 6 6 5 5 4 4 3 3 3 2 2 2 2 2 2 2 3 3 4 5 6 7 7 8 9
42 43 43 44 45 46 47 50 51 51 49 47 46 45 44 43 42 41 40 38 38 36 36 36 35 36 36 37 38 38 39 38 38 38 38 37 36 35 34 32 31 30 28 27 25 24 22 21 20 19 18 17 16 15 14 14 14 13 12 11 10 8 7 7 7 6 6 5 4 4 4 3 2 2 2 2 2 2 3 3 4 5 6 6 7 8 8 9
42 43 44 45 46 47 48 51 53 52 50 48 48 47 45 44 43 42 40 39 38 37 36 36 36 36 36 36 36 37 37 36 37 37 36 36 36 35 34 33 32 30 29 28 26 25 24 22 21 20 19 19 17 17 17 17 16 14 13 13 11 10 9 9 8 7 7 6 5 5 4 3 3 2 2 2 2 2 3 4 5 5 6 7 8 9 9 10
43 44 45 46 46 47 49 53 55 53 52 50 49 48 46 45 44 42 41 40 39 37 37 36 36 36 36 36 36 36 36 35 36 36 35 35 35 35 34 33 32 31 30 29 27 26 25 24 23 22 21 20 19 19 19 18 17 15 15 14 12 11 10 10 10 9 8 7 6 6 5 4 3 3 2 2 2 3 3 4 5 6 7 7 8 9 10 10
44 45 45 47 48 48 50 54 56 55 53 52 50 49 48 46 45 44 42 41 39 38 37 37 36 36 36 36 36 35 35 35 35 35 35 34 35 35 34 33 33 32 31 29 28 27 26 25 24 23 22 21 21 21 21 20 18 16 16 15 13 12 12 12 11 10 9 8 8 7 6 4 4 3 2 3 2 2 4 4 6 6 7 8 9 9 10 11
45 46 46 47 49 49 52 56 57 57 55 53 52 51 49 48 46 45 43 41 40 39 38 37 36 36 36 36 36 35 35 35 35 35 35 35 34 34 34 33 32 32 31 29 28 28 26 25 25 24 23 23 23 23 22 21 19 19 18 16 15 14 13 13 12 12 11 10 9 8 7 5 5 4 2 3 3 2 3 4 6 7 8 9 9 10 11 12
46 47 47 48 50 51 53 57 59 58 57 55 54 52 51 49 47 45 44 42 40 39 38 37 37 37 36 36 36 35 35 36 35 35 35 35 34 33 33 33 32 31 30 29 29 28 27 27 26 26 25 25 24 24 23 22 22 21 19 18 17 16 15 14 13 13 12 11 10 9 8 6 5 4 3 3 2 2 3 4 6 7 9 10 10 11 13 14
48 48 48 49 51 52 55 58 59 59 58 57 55 54 52 50 48 46 44 42 41 39 38 37 37 37 36 36 36 35 36 36 35 35 35 34 34 33 32 32 31 31 30 29 29 28 28 28 27 27 26 26 25 25 25 24 23 22 21 19 18 17 16 15 15 14 13 12 12 10 9 7 6 5 4 4 3 3 4 5 6 8 9 11 12 13 15 16
49 49 49 50 52 53 56 59 60 60 60 58 56 54 52 50 48 46 44 42 41 40 39 38 37 37 36 36 36 35 35 35 35 34 34 34 33 32 31 31 30 30 30 29 29 29 29 28 28 28 27 27 27 27 26 25 25 24 22 21 20 18 17 17 16 16 15 14 13 11 10 8 7 6 6 5 5 4 5 6 7 9 11 12 13 15 16 17
50 50 50 51 53 54 57 60 61 61 60 59 57 55 53 51 49 47 45 43 42 40 40 38 38 37 37 36 35 35 35 35 34 34 33 33 33 32 31 30 29 29 29 29 29 29 29 29 29 29 28 28 28 28 27 27 27 25 24 23 22 20 19 18 18 17 16 15 14 12 11 10 9 8 8 7 6 6 7 8 9 11 12 14 15 16 17 19
51 51 51 52 53 55 58 61 62 61 61 59 57 55 53 52 50 48 46 44 42 41 40 39 38 37 37 36 35 35 35 35 35 34 33 33 32 31 30 30 29 28 28 29 29 29 30 30 30 29 29 29 29 29 29 29 28 27 26 24 23 21 20 20 19 19 18 17 15 13 12 11 10 10 10 9 8 8 9 10 10 12 14 15 16 18 19 20
53 53 52 53 54 56 58 61 62 61 61 59 58 56 54 52 50 49 47 45 43 42 41 40 39 38 38 36 35 35 35 35 35 34 34 33 32 31 30 29 29 28 28 29 29 30 30 31 31 31 31 31 30 30 30 30 30 29 27 26 24 23 21 21 21 20 19 18 17 15 13 12 11 12 12 11 10 10 10 12 12 14 15 16 17 19 20 21
54 54 54 54 55 57 59 61 62 61 61 59 58 57 55 54 52 50 48 46 45 44 42 41 40 39 39 36 35 35 35 35 35 35 34 33 32 31 30 29 29 28 28 29 30 30 31 32 32 32 32 32 32 32 31 32 31 30 29 27 25 25 23 23 23 21 20 20 18 17 15 14 14 14 13 13 12 12 12 14 15 16 17 18 19 21 22 22
55 55 55 55 56 57 59 61 62 61 61 60 59 58 56 55 53 51 49 48 46 45 44 42 41 41 39 37 36 36 35 36 36 35 35 34 33 32 31 30 29 29 29 29 30 31 32 33 33 33 33 33 33 32 32 33 33 33 31 28 26 27 26 24 23 22 22 21 20 20 17 16 17 16 15 15 14 14 14 15 17 18 19 20 21 22 23 24
56 56 56 56 56 57 58 61 62 61 61 60 60 59 58 56 54 52 50 49 48 46 45 43 42 41 39 37 36 36 36 36 36 36 35 34 34 33 32 31 30 30 30 30 31 32 33 33 34 34 33 33 33 33 35 35 35 33 31 29 28 28 27 26 24 23 24 23 22 22 20 19 18 18 17 17 17 15 15 17 18 20 21 23 23 24 25 25
57 58 57 58 57 57 58 60 61 62 61 61 60 59 59 57 55 54 52 50 49 47 46 44 42 42 40 37 37 37 37 37 36 36 36 35 34 33 32 31 31 30 30 31 31 32 33 34 34 34 34 34 35 36 37 36 35 34 32 31 31 30 29 28 25 25 26 26 24 24 23 21 19 19 19 20 20 17 16 18 18 20 23 24 26 27 27 26
57 59 58 59 59 58 59 59 60 62 61 61 60 60 59 58 56 54 52 51 50 49 47 45 44 43 41 38 36 37 37 37 37 36 36 36 35 34 33 32 32 31 31 31 31 32 33 33 34 35 35 36 36 36 36 35 35 36 34 33 33 32 31 29 27 28 29 28 26 26 26 23 20 21 21 21 22 20 19 20 20 21 23 25 27 29 30 29
54 59 59 59 60 59 59 60 60 61 61 61 60 59 59 58 57 55 52 52 51 50 49 47 45 43 40 37 36 37 37 37 37 37 37 36 36 35 34 34 33 32 32 31 31 32 33 34 35 36 35 35 35 34 35 36 37 37 36 35 34 33 33 32 30 30 30 29 28 28 29 25 22 23 23 23 23 22 22 22 22 23 25 27 28 29 30 31
52 57 60 60 61 61 60 60 60 60 60 60 59 59 59 57 57 55 54 53 52 51 50 48 45 43 41 38 37 37 38 38 38 38 38 37 37 36 35 35 34 33 33 32 31 33 33 35 35 35 35 35 35 36 37 37 37 37 37 36 35 35 35 34 33 32 31 32 31 30 30 27 24 24 25 24 24 24 24 25 25 25 27 28 29 30 32 32
49 55 59 61 61 62 62 61 60 60 59 59 59 59 58 57 57 55 55 55 54 53 52 49 46 44 42 40 38 38 39 39 39 38 38 38 38 37 36 35 35 35 34 33 33 33 34 35 36 35 35 36 37 37 37 37 37 38 38 38 37 37 37 36 35 35 35 34 34 33 32 30 26 26 26 24 24 26 27 27 27 27 28 29 30 33 34 34
48 52 57 60 62 63 63 62 61 60 59 59 59 59 58 57 57 56 56 56 56 55 54 52 48 46 44 42 40 40 40 40 39 39 39 39 38 38 38 37 37 38 36 34 34 34 35 35 36 35 36 37 38 37 37 37 37 38 39 39 40 40 39 38 39 39 38 37 36 35 35 32 29 27 26 25 25 27 29 29 28 28 28 30 32 34 36 37
48 50 55 59 62 63 64 63 62 60 60 59 59 59 59 57 57 58 57 58 59 57 56 54 51 49 47 45 43 43 42 42 41 41 41 41 40 40 39 38 39 38 36 36 37 36 36 35 34 34 35 37 38 38 38 38 38 39 40 40 41 42 41 41 42 42 41 40 37 36 37 36 31 28 27 26 26 28 29 30 29 29 29 31 33 35 37 38
50 49 53 58 61 63 64 64 63 62 60 59 59 59 59 59 59 59 58 59 61 59 57 55 52 50 48 47 46 45 45 44 42 43 43 42 42 41 41 40 40 40 39 38 38 37 36 35 34 33 35 37 39 39 39 39 39 40 41 41 41 42 43 44 44 44 43 42 40 39 39 39 34 29 27 28 28 30 30 30 31 31 31 32 34 36 37 37
53 51 51 55 59 62 64 64 64 63 61 60 60 60 60 60 60 60 59 62 64 61 58 57 54 52 50 49 48 47 46 45 44 44 43 42 42 41 41 41 40 41 41 40 39 38 38 37 36 35 36 38 39 40 41 40 41 41 42 42 42 43 45 45 45 45 45 45 43 42 42 42 37 31 30 29 30 31 31 32 33 33 33 34 35 36 37 37
51 54 52 53 57 61 63 64 64 64 63 62 62 61 61 60 61 61 60 63 66 63 59 58 56 54 52 50 50 49 47 46 45 44 43 43 43 42 42 42 41 42 42 40 40 40 40 39 39 38 38 38 39 40 40 41 42 42 43 43 43 44 45 46 46 46 47 47 45 44 44 44 39 34 34 34 33 33 33 34 35 35 35 36 37 37 37 37
47 54 56 53 55 60 62 63 64 63 62 63 63 63 62 61 62 62 63 65 67 65 61 59 57 55 54 52 51 50 49 48 47 45 45 46 45 44 44 44 43 42 43 41 41 42 42 41 41 40 39 39 39 40 40 40 41 42 43 43 44 45 45 46 47 47 48 48 46 46 46 46 42 35 34 37 37 36 37 38 38 38 39 40 39 39 39 38
47 50 56 56 54 56 61 63 64 64 62 63 64 63 63 63 62 63 66 66 66 66 64 61 58 56 54 54 52 51 50 50 49 48 48 47 46 46 46 46 44 44 44 43 43 43 43 42 42 41 41 40 40 41 40 41 41 41 42 43 43 44 44 45 47 48 49 49 48 48 48 48 44 37 36 40 40 39 40 41 41 42 44 44 42 41 41 40
49 49 53 57 56 55 58 61 63 63 64 64 64 64 63 64 65 66 67 65 66 69 66 61 59 57 55 55 54 53 53 51 50 49 49 48 48 47 46 45 44 43 43 43 42 42 42 42 42 42 42 42 42 42 42 42 42 42 42 42 42 42 43 44 45 47 48 48 48 49 50 49 43 38 40 43 42 41 42 43 45 46 47 46 44 43 43 43
52 50 50 55 58 56 56 59 61 62 64 65 65 64 64 64 67 69 68 66 68 70 65 61 60 58 57 57 56 55 55 54 52 50 49 49 49 48 48 47 45 44 43 43 43 42 43 43 43 43 43 43 43 43 43 42 42 42 41 41 41 41 43 44 44 45 46 46 47 49 50 48 42 39 40 42 43 43 44 45 47 48 48 47 44 43 43 43
54 53 51 52 57 59 57 57 60 62 62 63 65 66 65 66 69 69 69 69 70 69 65 63 62 61 60 59 58 57 56 55 55 54 52 51 51 50 50 49 48 46 46 45 45 44 44 44 43 42 43 43 43 43 43 43 42 42 42 42 42 41 43 43 44 44 44 44 45 46 47 45 41 39 39 39 40 41 43 45 46 47 48 47 45 44 43 43
55 56 54 52 54 59 60 59 59 61 63 63 65 67 68 70 71 70 70 71 71 69 67 66 65 64 63 62 61 60 58 58 57 56 56 54 53 52 50 49 48 48 47 47 47 45 44 44 43 42 42 42 43 44 44 44 44 43 43 44 44 42 43 43 44 44 44 44 44 43 44 42 40 39 39 38 38 39 42 43 44 44 45 45 45 44 43 43
57 57 58 56 54 57 61 62 61 61 63 65 66 69 72 72 71 70 71 73 72 71 70 70 68 67 66 65 65 64 62 61 59 57 57 55 54 54 52 50 49 49 47 46 47 47 45 45 44 43 42 42 42 43 44 44 43 43 43 44 44 43 43 43 44 43 44 46 45 43 43 40 38 38 37 36 37 39 40 41 41 42 43 43 43 43 43 43
59 58 58 58 57 56 59 63 64 64 64 65 68 71 72 71 69 68 70 73 73 72 71 72 70 69 69 68 67 66 63 63 62 61 59 57 56 55 53 52 52 51 48 47 48 48 47 46 46 46 44 43 43 43 44 44 44 44 44 44 43 43 44 43 44 44 45 47 46 43 42 39 37 36 34 33 35 36 38 40 42 43 43 44 42 42 43 43
58 59 58 59 60 59 59 61 65 67 67 67 68 68 68 69 68 69 71 72 72 71 71 72 72 70 69 68 67 66 65 64 64 63 62 61 59 56 54 54 53 51 49 48 48 49 50 49 49 49 47 45 44 44 45 45 45 46 45 44 43 43 44 43 44 44 45 46 46 42 41 41 38 35 34 34 35 36 38 40 41 43 44 44 42 42 43 43
54 59 60 60 61 61 61 62 65 69 71 71 70 67 65 65 66 68 71 72 72 72 72 73 73 70 69 68 66 65 65 64 64 63 62 62 61 58 56 55 54 51 49 48 49 50 51 50 50 50 49 47 47 47 47 47 46 46 45 44 43 43 44 44 45 45 44 46 47 44 44 43 38 35 35 36 37 38 40 41 42 44 45 43 41 42 44 45
52 56 59 61 61 62 62 63 65 70 72 69 66 66 65 65 66 67 69 70 71 72 72 72 73 71 69 69 67 66 64 63 63 62 62 62 61 59 58 56 55 53 49 48 49 50 52 52 52 52 52 51 50 48 47 45 45 45 45 45 45 44 45 46 47 47 46 48 49 49 49 44 37 36 38 40 40 41 42 44 45 46 46 43 41 41 44 47
52 54 55 58 61 63 64 64 66 69 69 63 59 62 67 69 68 67 67 69 70 71 71 71 72 71 69 68 68 67 65 64 63 62 62 63 61 61 60 57 55 53 50 49 50 50 52 52 52 52 53 52 50 48 46 45 45 45 45 46 46 45 46 47 49 50 49 50 50 51 53 46 38 37 39 41 42 43 45 46 45 45 45 44 44 43 44 47
55 54 52 52 56 60 64 66 66 66 66 62 58 59 64 68 69 68 67 68 70 70 70 69 69 70 69 68 67 66 64 64 64 63 63 63 62 60 60 57 53 51 49 48 47 47 48 50 51 52 54 54 52 50 50 49 49 48 48 48 48 49 50 51 52 51 51 53 51 52 55 48 38 38 40 41 43 45 47 47 45 44 44 44 45 45 46 49
59 57 54 53 53 55 59 62 65 66 65 61 60 62 63 64 68 69 69 70 71 70 69 68 67 68 68 67 66 65 63 62 63 63 61 61 60 59 58 57 53 51 51 50 49 48 50 52 54 55 56 56 55 54 53 52 52 52 52 51 51 52 53 53 53 52 54 55 53 54 57 51 41 40 42 44 46 47 47 46 45 46 46 46 46 47 50 51
60 59 58 57 56 56 58 59 60 63 63 62 63 65 64 63 65 67 69 71 72 70 69 67 66 66 67 67 66 64 63 61 62 63 61 61 60 59 58 56 54 52 52 51 51 51 51 53 53 54 55 57 58 57 56 56 55 54 53 51 51 52 52 53 53 54 56 55 53 56 60 54 46 44 45 46 49 49 49 48 47 47 47 47 48 49 51 51
59 60 61 61 61 61 61 59 55 54 57 61 64 64 64 64 66 65 66 68 69 69 69 68 66 65 66 66 65 63 62 61 60 61 60 59 59 59 58 57 56 53 51 51 50 50 50 51 52 53 56 59 60 59 58 55 53 53 52 51 51 50 51 52 53 54 56 56 54 59 61 56 50 49 49 49 49 50 50 51 50 49 48 49 50 51 51 51
58 60 62 63 64 64 63 62 60 56 54 57 60 61 63 64 65 65 65 66 66 66 67 68 67 66 66 67 66 64 63 61 60 60 59 58 57 57 57 57 56 54 53 52 52 51 52 52 53 54 57 59 59 57 56 54 53 53 53 53 52 51 50 51 54 57 59 58 58 60 60 58 54 51 51 51 50 51 51 52 52 51 50 50 51 51 51 52
63 61 62 63 64 66 65 64 65 62 57 55 55 55 57 60 62 64 65 66 65 65 65 66 66 66 66 66 65 64 62 61 60 60 59 58 57 57 57 56 55 55 54 54 54 54 55 55 55 56 56 57 56 55 56 57 56 56 55 54 54 53 52 53 57 60 59 60 63 60 57 58 57 52 51 51 51 52 52 52 54 53 52 52 52 53 54 56
69 65 63 63 62 64 65 66 67 66 63 60 57 54 54 55 58 60 62 63 64 64 64 64 63 62 62 62 62 63 62 61 61 60 58 59 59 59 58 57 57 57 56 56 56 56 57 58 57 57 57 57 56 56 56 58 59 59 58 57 56 55 56 57 60 61 59 62 65 59 56 60 59 54 53 53 52 52 52 52 54 55 55 55 56 58 59 59
72 70 67 65 64 63 62 65 68 69 68 66 64 61 58 56 54 54 57 60 62 63 63 63 61 60 60 61 62 62 62 62 61 59 59 61 62 61 60 60 60 59 58 58 58 58 59 59 58 58 59 58 57 57 58 58 60 61 61 60 59 58 59 61 62 62 61 63 64 60 60 62 59 57 57 54 52 53 52 54 56 58 59 59 60 61 61 61
73 73 72 70 68 65 62 63 67 71 72 71 69 66 64 61 57 54 55 57 58 59 61 60 59 60 61 62 63 63 63 63 62 61 62 63 63 62 62 62 61 60 60 60 60 60 60 60 59 59 60 61 60 59 59 60 61 62 63 63 63 62 63 64 64 63 63 65 64 62 64 62 56 56 57 54 53 55 56 57 59 60 61 62 61 61 62 61
73 74 73 73 71 69 66 64 65 68 71 73 73 70 68 65 62 59 58 57 56 57 58 57 57 60 62 63 64 64 64 64 64 64 64 64 64 63 63 63 63 62 62 62 62 62 62 62 61 61 64 64 61 60 62 62 61 63 65 65 65 66 67 67 66 65 65 66 65 65 67 62 55 57 58 56 57 59 59 61 62 62 61 61 59 60 61 61
72 73 73 72 72 72 71 68 66 66 67 70 72 71 70 68 66 65 65 63 61 59 57 56 58 61 63 63 62 62 64 65 65 64 65 65 65 65 65 65 65 64 64 64 64 64 63 63 63 63 66 65 62 62 63 64 65 67 67 65 65 67 68 69 69 68 67 67 67 68 68 64 60 62 63 61 61 61 59 60 61 60 59 58 57 59 61 61
Wind_Direction
208 208 206 201 198 195 195 195 195 194 193 191 189 189 189 188 188 187 187 186 185 184 184 184 183 182 181 181 183 183 183 183 183 182 182 182 182 182 182 181 182 182 183 185 185 186 188 189 191 193 194 196 195 195 198 198 197 198 198 203 206 203 196 181 178 175 163 157 157 162 170 188 216 246 277 312 333 348 354 6 17 20 20 20 18 13 10 10
207 207 206 201 198 196 194 194 194 194 193 192 191 190 190 189 189 188 187 186 185 185 185 186 185 184 183 183 184 185 185 185 184 185 185 185 185 185 186 186 186 187 187 189 191 192 194 196 198 199 202 203 204 205 205 206 207 206 207 210 209 206 198 184 189 193 185 180 174 174 175 191 225 246 267 283 300 325 339 351 5 10 12 13 14 11 7 7
207 205 205 202 198 196 194 193 193 194 193 193 192 192 190 189 189 188 187 186 185 185 185 185 186 186 186 186 186 187 187 187 186 187 188 188 188 189 189 190 191 191 192 194 196 198 199 202 205 206 207 209 210 211 210 212 213 214 213 212 210 210 203 190 196 198 190 186 179 180 183 198 225 245 264 273 287 314 328 339 352 0 4 6 8 7 4 4
207 204 204 202 199 196 194 192 193 194 193 193 193 192 190 189 188 187 186 186 185 185 185 185 186 186 187 188 188 188 189 189 189 189 190 191 192 192 193 194 195 196 198 199 201 203 204 206 208 210 211 213 215 216 215 215 217 218 214 208 207 209 205 199 200 196 194 189 183 186 191 200 220 241 261 277 300 323 327 332 344 353 358 0 1 2 2 1
207 204 202 202 199 197 194 192 192 194 194 193 192 191 190 188 187 187 186 186 185 185 186 186 186 187 188 189 189 189 190 190 190 191 192 193 195 196 196 198 199 201 202 204 206 207 210 211 212 214 214 216 218 219 217 215 218 217 212 210 210 207 202 203 203 199 198 193 190 192 193 201 216 238 259 281 309 324 328 333 343 349 352 355 355 357 359 358
208 205 202 201 200 197 195 192 192 193 194 193 192 190 189 189 188 187 187 187 187 187 187 188 188 189 189 190 190 190 191 192 192 192 193 195 197 198 199 201 203 205 207 208 210 211 213 215 216 217 217 219 221 220 218 218 220 216 213 216 214 209 205 206 206 202 201 200 199 197 197 203 211 234 262 287 311 321 331 336 342 347 348 351 351 351 354 354
208 207 202 200 200 198 195 192 191 192 193 192 191 190 190 189 189 189 189 189 189 189 190 190 190 191 191 191 191 191 192 193 194 194 195 197 198 201 202 204 206 208 210 212 213 215 216 218 219 220 220 222 223 221 220 219 220 214 213 217 215 212 209 208 208 204 204 205 207 206 205 206 205 230 270 291 311 321 329 334 337 344 346 347 347 347 349 349
208 207 203 200 199 198 196 192 191 192 193 192 191 191 191 191 191 191 191 191 191 192 193 193 193 193 193 193 193 193 194 195 195 196 197 199 201 203 205 207 209 211 213 214 216 217 219 221 221 222 223 224 223 222 221 221 219 214 213 217 216 213 213 211 211 208 208 210 214 217 215 210 206 222 265 286 303 316 324 332 335 341 345 345 345 345 346 345
208 207 204 200 199 198 196 193 191 192 193 193 192 192 192 192 192 193 193 193 194 195 196 196 196 196 195 195 195 195 196 196 197 198 199 201 203 204 206 208 210 213 215 216 217 219 222 223 224 226 225 223 222 221 222 221 218 215 216 217 216 215 215 214 214 212 213 215 219 223 222 216 212 214 243 280 291 313 322 331 335 340 345 346 345 345 344 342
208 208 205 201 199 197 196 193 192 192 193 193 193 193 193 193 194 195 195 196 197 198 199 200 199 199 198 197 197 197 197 198 199 200 201 202 204 206 208 209 211 213 215 217 219 221 223 224 224 226 225 223 223 222 222 220 215 215 216 217 217 217 217 216 216 216 217 219 223 226 226 221 217 211 227 268 281 307 321 331 336 342 347 346 346 344 344 342
207 207 205 202 199 197 196 194 193 193 193 193 194 194 195 195 196 197 197 198 200 202 203 203 203 202 201 200 199 199 199 199 200 201 202 203 205 207 208 210 212 214 216 217 219 221 222 223 224 225 224 224 223 221 220 217 214 216 216 216 218 218 219 220 219 219 220 222 226 228 227 224 218 213 224 247 263 296 314 326 334 341 343 342 342 341 341 341
206 206 206 203 200 197 196 194 194 193 193 194 195 196 196 197 198 199 200 201 202 204 205 205 205 204 203 203 201 201 201 201 201 201 203 204 205 207 209 210 212 214 216 218 219 221 222 223 224 224 224 224 223 220 219 217 215 217 217 217 219 220 221 222 222 222 224 226 228 228 227 226 221 217 227 241 258 283 302 316 327 334 335 334 335 335 336 336
205 205 205 203 200 198 196 195 195 195 194 195 196 197 198 198 200 201 202 203 205 206 206 206 206 205 204 204 203 202 203 203 203 203 203 205 206 207 209 211 213 214 216 218 220 221 222 223 224 223 223 222 221 220 219 217 216 217 218 219 220 222 223 224 225 225 227 229 229 229 230 231 230 232 233 238 258 277 293 306 319 325 326 327 328 329 330 331
205 205 205 203 201 198 196 195 195 196 195 196 197 198 199 200 201 203 204 205 206 207 207 207 206 206 206 205 204 203 204 204 203 204 204 205 207 208 210 211 213 215 217 219 221 221 222 223 223 223 222 221 221 220 219 218 218 218 220 220 221 223 225 227 227 228 230 231 229 229 232 237 235 238 240 242 258 272 285 298 310 316 318 322 324 325 325 327
204 204 204 203 201 199 196 196 196 196 197 197 198 199 200 201 203 204 205 206 207 208 208 208 208 207 207 206 205 205 205 205 204 205 205 206 208 209 211 213 215 217 219 221 222 223 223 223 223 223 222 222 221 221 219 219 219 219 221 222 223 225 226 229 230 229 231 233 231 229 232 239 238 240 247 251 262 270 281 292 302 309 313 318 320 321 322 325
203 204 204 203 201 199 197 197 197 198 198 198 199 200 201 202 204 205 206 207 208 208 208 209 209 209 209 208 207 206 207 207 206 206 206 207 209 210 212 214 217 219 221 223 224 224 224 224 223 222 222 222 222 221 220 220 220 221 223 224 225 228 228 231 233 230 231 233 234 232 231 238 243 245 251 257 264 272 282 291 298 304 309 314 317 318 320 322
203 203 204 203 202 200 198 198 198 199 199 200 200 201 202 203 205 206 207 208 208 209 209 210 210 210 210 208 207 208 208 208 207 207 207 208 210 211 214 216 219 221 223 225 226 226 225 224 224 223 222 222 222 222 221 221 221 222 225 225 226 231 231 231 234 233 233 234 236 236 232 236 245 248 255 261 266 272 280 289 296 301 306 311 314 316 317 319
204 203 203 203 202 200 200 199 199 200 200 201 201 202 203 204 206 207 208 209 209 209 210 210 210 211 210 207 208 210 209 209 208 208 208 209 211 212 215 218 220 223 224 226 226 226 226 225 225 224 223 223 223 223 223 222 222 222 225 226 227 231 233 233 234 235 237 235 236 239 236 237 246 251 256 262 267 271 279 287 292 298 303 307 310 313 315 317
205 203 203 202 202 201 201 201 200 200 202 202 203 203 204 206 207 208 209 209 209 210 211 211 211 212 211 208 210 211 211 211 210 210 210 211 213 214 217 219 221 224 225 227 227 227 226 226 225 225 224 224 224 224 224 224 224 224 227 230 230 233 237 237 235 236 239 239 238 241 239 239 246 254 258 263 266 268 274 282 290 296 301 304 307 309 312 315
206 204 203 202 202 202 202 202 201 202 203 203 204 205 206 207 208 209 210 210 210 211 212 212 213 213 212 210 212 213 212 212 212 212 213 213 215 217 218 220 223 225 226 227 228 228 227 226 226 225 224 224 224 224 225 225 225 226 228 230 232 234 238 240 238 239 241 242 242 244 243 241 244 251 256 263 268 269 272 277 285 293 298 302 305 307 310 313
207 204 203 203 203 203 203 203 203 203 204 204 206 207 207 209 210 211 211 211 212 212 212 213 214 215 214 212 214 216 215 214 215 215 216 216 217 219 220 222 224 225 227 228 228 229 228 227 227 226 226 226 226 227 228 228 227 228 229 231 233 236 239 241 241 242 244 245 245 247 248 244 245 250 255 261 267 270 272 276 282 287 293 297 300 304 307 309
208 206 204 203 203 204 205 204 205 205 205 206 207 208 209 210 211 211 211 213 213 214 214 214 215 216 216 215 216 218 218 217 217 218 218 218 219 220 221 223 225 226 228 229 229 229 229 228 228 227 228 228 229 229 230 230 229 230 231 233 235 237 240 243 243 244 247 249 249 250 251 247 245 251 256 261 266 269 273 277 282 286 291 294 296 300 303 306
208 207 206 204 204 205 206 206 206 206 207 207 208 209 210 211 211 211 212 213 214 215 217 216 217 218 219 218 218 219 220 219 219 219 219 220 220 222 223 224 226 227 229 229 230 231 231 230 230 229 230 231 231 230 232 232 232 233 234 235 237 239 241 244 246 247 249 252 252 252 252 251 248 250 255 259 265 270 273 276 280 286 291 293 296 299 301 304
207 208 208 206 206 206 207 208 207 207 208 209 209 210 211 211 212 213 214 215 215 215 217 217 218 219 221 221 220 221 221 220 220 220 220 221 222 222 223 225 227 228 229 229 231 232 232 232 231 231 231 232 233 232 234 235 234 235 236 237 239 240 242 244 247 249 250 252 255 256 256 254 250 250 252 256 263 269 272 275 279 285 289 292 296 297 299 302
206 208 209 208 207 207 208 209 208 209 209 210 211 211 212 212 213 214 216 217 216 216 217 217 217 218 220 222 222 222 223 222 221 222 222 223 224 224 225 226 228 229 229 230 233 233 233 233 233 233 233 235 236 236 236 237 238 238 238 239 241 242 243 245 248 250 252 252 255 259 261 259 253 251 252 255 260 265 269 274 278 282 286 290 293 295 298 300
205 206 209 210 210 209 209 209 210 210 211 211 212 212 212 213 215 216 217 219 218 217 217 218 218 218 219 221 222 222 223 222 221 222 223 223 225 226 227 228 230 232 231 232 234 235 235 236 236 236 237 238 239 239 239 240 240 241 240 241 243 244 245 246 248 250 253 254 256 259 262 263 259 254 256 259 261 262 265 270 276 280 284 288 290 293 295 296
208 206 208 211 212 211 211 210 211 212 212 213 214 214 214 214 216 217 218 221 220 217 218 219 219 220 220 222 223 223 224 223 222 223 224 224 226 227 229 229 231 234 234 234 236 237 238 239 239 238 239 240 241 241 242 242 243 243 242 242 244 246 248 248 249 251 253 255 257 258 261 265 264 260 259 262 263 264 266 270 275 278 282 285 287 289 290 292
211 209 208 210 212 213 212 212 212 212 213 215 216 216 216 216 218 218 219 222 220 217 218 220 220 220 222 224 224 225 225 224 225 226 226 227 229 230 232 232 233 235 236 236 237 238 239 240 239 238 239 240 241 242 243 244 244 244 245 245 246 247 249 250 251 252 254 255 257 259 261 265 267 268 269 267 265 266 269 273 276 278 282 283 284 285 287 290
213 212 209 209 211 213 214 213 213 213 214 216 216 217 218 219 219 219 220 222 220 218 219 221 221 221 222 225 226 226 227 227 227 228 228 229 230 231 234 234 235 237 238 239 240 240 240 241 241 240 240 241 242 244 245 246 247 247 248 249 249 249 250 252 254 254 256 256 258 260 261 264 267 271 274 273 271 271 273 276 278 280 282 282 283 285 287 289
215 213 211 210 211 212 214 215 214 214 215 216 217 218 218 220 220 220 221 221 220 220 220 221 222 223 224 226 227 227 228 228 229 230 230 231 231 232 234 235 236 238 240 240 240 241 241 241 242 242 242 243 244 246 247 248 249 250 251 252 252 252 252 254 255 256 257 257 258 260 262 265 268 270 272 274 276 278 279 281 283 284 285 284 285 287 289 290
216 215 213 212 211 212 213 214 215 214 215 215 216 217 218 219 220 222 223 221 222 223 221 221 223 223 225 227 228 229 230 230 230 231 232 232 233 233 234 235 236 238 240 240 241 242 243 243 243 243 244 244 245 246 248 249 250 251 252 253 254 255 255 255 256 257 258 258 260 262 263 264 266 270 275 277 278 281 284 287 288 289 289 289 291 292 293 293
217 217 216 213 212 212 212 213 214 214 215 216 216 217 218 219 219 221 223 221 224 225 223 223 224 225 227 228 229 230 231 232 233 233 234 235 236 236 237 238 239 240 241 243 243 244 245 245 244 244 244 244 245 246 247 249 251 252 254 255 257 258 258 258 258 258 259 260 261 263 264 264 266 270 274 277 281 284 287 288 288 289 289 291 294 295 295 295
217 217 218 216 213 213 213 213 213 214 215 216 217 217 217 219 220 222 223 222 225 226 224 224 226 227 229 230 230 231 231 233 234 235 237 237 238 238 238 239 239 240 241 242 243 243 244 245 244 244 244 244 245 246 248 250 252 254 256 257 258 259 260 260 260 260 260 261 261 263 265 266 268 270 271 275 281 284 285 285 286 287 289 291 293 292 292 292
219 218 218 218 215 214 213 214 213 213 214 215 217 217 217 219 221 223 224 224 227 227 226 226 227 228 230 231 232 232 233 234 234 235 236 237 238 238 238 239 239 240 241 242 243 243 244 245 245 245 244 245 246 247 248 250 252 254 255 257 257 259 261 262 262 262 263 263 262 263 265 268 270 272 272 274 277 279 281 281 283 286 289 290 290 289 289 289
219 219 219 219 218 216 214 215 215 214 214 215 217 218 219 221 223 224 225 226 228 228 228 228 228 230 231 232 232 232 233 234 235 236 237 237 239 239 240 241 241 243 244 245 246 246 246 247 247 246 246 246 247 248 250 251 253 255 256 257 259 261 263 264 264 266 266 265 264 263 265 267 271 273 274 276 276 276 277 279 282 284 286 287 287 288 289 288
219 219 220 219 219 219 217 216 217 217 216 216 217 219 221 224 226 227 228 228 229 229 229 230 230 230 231 232 232 233 233 234 235 237 238 239 240 240 240 241 242 243 244 246 247 247 247 248 248 248 248 248 249 250 251 252 253 254 255 258 260 261 261 262 263 264 265 265 266 266 267 269 271 272 274 276 277 277 278 280 281 282 282 283 285 287 287 287
220 220 220 220 220 221 220 218 217 218 218 218 219 220 222 225 226 227 228 229 229 229 230 231 231 231 232 232 233 234 234 235 236 237 238 238 239 240 241 242 243 244 245 246 247 248 248 248 248 248 248 248 249 250 251 252 253 254 256 258 259 259 260 260 261 262 264 266 268 270 271 271 271 271 273 273 273 276 278 280 280 281 281 281 282 284 284 285
223 222 221 221 221 220 221 222 220 219 219 220 222 222 223 223 223 225 226 227 229 229 230 232 232 232 233 234 234 235 235 236 236 237 238 239 239 240 241 242 243 244 246 246 247 248 249 250 250 249 249 249 250 250 252 254 255 257 258 258 258 259 261 261 262 264 265 267 269 270 271 270 269 271 274 273 273 274 274 274 276 278 278 279 281 283 283 284
224 225 223 222 222 220 220 222 222 220 219 221 223 223 223 223 222 224 225 226 227 229 229 232 233 232 233 233 234 235 236 236 237 238 239 240 241 241 242 244 245 245 246 246 247 248 250 251 251 251 251 251 250 251 253 256 257 257 258 258 259 260 262 262 263 264 266 267 269 269 267 267 270 273 274 274 274 274 274 275 276 275 275 277 280 282 283 282
221 224 223 222 224 222 220 221 221 220 220 223 226 225 223 223 222 223 225 225 226 228 229 230 232 233 232 233 233 234 235 236 237 238 239 240 241 241 242 244 246 246 245 244 245 247 248 250 251 252 252 252 252 254 255 256 256 256 257 258 259 260 261 262 263 263 263 264 267 267 267 267 270 273 274 275 275 275 276 276 275 276 278 280 280 279 280 279
218 222 221 222 224 224 222 221 221 222 224 226 227 225 224 223 223 223 225 225 225 227 228 229 231 233 233 233 233 233 234 235 236 237 238 239 240 241 242 243 244 245 244 243 245 247 250 251 252 253 253 254 255 255 254 253 253 254 255 257 259 260 260 259 260 261 261 262 264 265 267 269 271 273 274 276 277 276 274 273 274 276 279 280 280 278 277 276
216 221 221 222 224 224 224 223 223 224 226 227 227 226 225 225 224 224 225 226 226 226 227 228 229 231 232 232 232 233 235 235 236 236 238 239 240 241 242 242 241 242 243 243 245 247 248 250 251 252 253 254 254 253 252 252 253 254 255 257 259 260 260 259 260 261 260 261 262 263 266 270 273 275 275 274 273 271 271 272 274 276 277 276 277 277 275 275
213 219 221 222 224 225 225 224 224 224 224 225 226 227 226 226 226 225 225 226 227 226 227 227 228 230 231 232 231 232 233 235 236 236 238 239 239 240 241 241 241 241 242 243 244 245 245 247 248 250 251 251 252 252 252 253 254 256 258 259 259 259 260 259 259 259 257 259 263 264 267 272 275 273 272 271 270 269 269 271 273 273 273 273 274 275 275 276
207 213 218 221 224 225 225 225 226 226 225 223 224 226 226 226 227 227 227 228 228 228 227 228 229 230 232 233 232 231 231 233 235 236 236 237 238 239 240 241 241 241 242 244 245 245 246 247 248 249 250 251 252 253 254 256 258 258 258 258 257 258 258 257 257 257 257 261 266 265 267 273 275 271 269 266 265 266 268 269 270 271 272 273 273 273 274 278
202 205 211 216 219 222 226 228 227 227 227 225 224 225 226 227 228 228 228 229 230 230 229 229 230 230 232 234 234 233 233 234 235 236 236 236 237 238 239 239 240 240 240 241 241 242 243 244 245 246 248 251 253 255 257 258 257 256 256 256 255 254 255 256 256 255 257 262 263 262 267 273 273 270 267 265 264 266 267 268 269 270 271 272 272 273 276 281
206 203 205 209 211 213 220 226 227 225 225 226 225 225 225 227 228 229 230 231 232 232 231 231 231 230 232 234 235 235 235 235 236 237 238 238 238 238 239 239 239 240 240 239 239 240 241 242 243 245 248 251 253 255 255 254 252 252 253 253 252 251 251 253 253 254 260 263 260 261 267 271 271 270 268 267 267 267 267 268 270 270 270 271 273 277 280 282
215 209 205 206 207 207 209 216 223 224 223 225 226 225 225 227 228 229 230 231 233 233 233 234 233 232 233 235 237 238 238 237 237 238 238 239 239 238 238 239 239 239 240 240 240 240 241 242 243 245 247 249 251 252 252 252 251 251 251 250 250 250 250 251 252 256 262 260 259 263 266 266 269 269 266 266 267 268 269 271 272 273 273 274 277 279 281 282
222 216 210 207 208 208 206 209 216 221 222 224 226 226 226 227 227 228 229 230 232 234 234 235 235 235 236 238 239 240 241 240 239 239 240 241 240 240 240 240 240 240 240 241 242 241 242 243 243 245 246 247 248 249 250 252 252 252 251 249 249 250 250 252 254 258 260 259 261 265 263 262 268 269 266 266 268 269 272 274 275 276 277 278 280 281 282 283
225 222 218 214 213 211 209 207 211 215 219 222 224 226 227 227 227 227 228 230 231 233 234 235 235 236 238 239 239 240 241 241 241 240 241 241 242 242 242 242 242 242 243 244 245 245 245 245 245 246 247 247 246 247 248 251 252 253 253 252 251 251 252 254 256 258 259 259 262 264 262 263 268 269 268 269 271 273 274 274 275 276 277 278 279 281 282 283
226 225 224 222 220 216 213 210 209 210 214 218 221 224 226 227 228 228 229 230 230 231 233 235 235 236 237 238 239 240 241 242 242 242 241 242 243 242 243 244 244 244 245 246 247 248 249 249 247 248 250 248 245 246 247 249 251 253 254 254 254 254 254 255 256 257 258 260 262 264 264 266 270 271 271 273 275 275 274 274 273 274 275 277 278 280 281 282
226 227 226 226 225 223 220 217 213 212 213 215 218 222 225 227 229 230 232 233 232 232 233 234 235 236 237 237 237 239 241 242 243 244 244 244 244 244 245 246 245 245 247 248 249 250 251 251 250 251 254 251 246 246 248 250 254 254 252 254 257 257 258 258 257 258 259 261 263 264 266 269 273 273 273 273 272 272 272 273 274 275 276 277 278 279 279 280
226 227 228 229 228 227 226 225 223 219 215 213 215 219 222 225 227 229 231 233 233 234 235 236 237 238 237 236 237 238 240 242 243 245 246 246 247 246 247 247 247 247 248 248 250 251 252 252 252 253 256 254 250 250 251 254 257 254 251 253 257 259 260 261 261 260 261 262 263 264 266 270 271 271 271 272 271 271 272 272 273 274 274 275 275 275 276 278
Height
5734 5737 5740 5742 5745 5749 5752 5756 5760 5764 5767 5770 5773 5776 5778 5782 5785 5787 5790 5792 5794 5797 5800 5803 5806 5809 5812 5815 5818 5821 5824 5827 5830 5833 5836 5838 5841 5843 5845 5848 5850 5852 5854 5856 5858 5860 5862 5863 5865 5866 5867 5868 5870 5871 5872 5873 5874 5875 5876 5877 5877 5878 5878 5879 5879 5880 5880 5881 5882 5883 5883 5884 5884 5885 5885 5886 5886 5886 5887 5887 5887 5887 5887 5887 5887 5886 5886 5885
5732 5735 5738 5741 5744 5747 5751 5755 5759 5762 5766 5769 5772 5774 5777 5780 5783 5786 5789 5791 5794 5796 5799 5802 5805 5808 5811 5814 5817 5820 5823 5826 5829 5832 5835 5837 5840 5842 5845 5847 5849 5851 5853 5855 5857 5859 5861 5862 5864 5865 5867 5868 5869 5870 5871 5873 5874 5875 5875 5876 5877 5878 5878 5878 5879 5879 5880 5881 5882 5883 5883 5884 5884 5885 5885 5885 5886 5886 5886 5886 5887 5887 5887 5887 5887 5886 5886 5886
5730 5733 5736 5739 5742 5745 5749 5753 5757 5761 5765 5768 5771 5774 5776 5779 5782 5785 5788 5791 5793 5796 5799 5801 5804 5807 5810 5813 5816 5819 5822 5825 5828 5831 5833 5836 5839 5841 5843 5846 5848 5850 5852 5854 5856 5858 5860 5862 5863 5865 5866 5867 5868 5870 5871 5872 5873 5874 5875 5876 5877 5877 5878 5878 5879 5879 5880 5881 5882 5882 5883 5884 5884 5885 5885 5885 5885 5886 5886 5886 5886 5886 5886 5886 5886 5886 5886 5886
5728 5731 5734 5738 5740 5743 5747 5751 5755 5760 5763 5767 5770 5773 5775 5778 5781 5784 5787 5790 5793 5795 5798 5800 5803 5806 5809 5812 5815 5818 5821 5824 5827 5829 5832 5835 5837 5840 5842 5845 5847 5849 5851 5853 5855 5857 5859 5860 5862 5864 5865 5866 5868 5869 5870 5871 5872 5873 5875 5876 5876 5877 5877 5878 5878 5879 5880 5881 5881 5882 5883 5883 5884 5884 5884 5885 5885 5886 5886 5886 5886 5886 5886 5886 5886 5886 5886 5886
5726 5729 5732 5736 5739 5742 5745 5749 5754 5758 5762 5765 5768 5771 5774 5777 5780 5783 5786 5789 5792 5794 5797 5800 5802 5805 5808 5811 5814 5817 5820 5822 5825 5828 5831 5834 5836 5839 5841 5843 5846 5848 5850 5852 5854 5856 5858 5859 5861 5862 5864 5865 5866 5868 5869 5870 5871 5872 5874 5875 5876 5876 5877 5878 5878 5879 5879 5880 5881 5882 5883 5883 5883 5884 5884 5884 5885 5885 5885 5886 5886 5886 5886 5886 5886 5886 5886 5886
5723 5726 5730 5733 5737 5740 5743 5747 5752 5756 5760 5764 5767 5770 5773 5776 5779 5782 5785 5788 5791 5793 5796 5798 5801 5804 5806 5809 5812 5815 5818 5821 5824 5827 5829 5832 5835 5837 5840 5842 5844 5846 5849 5851 5853 5855 5856 5858 5859 5861 5863 5864 5865 5867 5868 5869 5870 5872 5873 5874 5875 5876 5876 5877 5878 5878 5879 5880 5881 5881 5882 5883 5883 5883 5883 5884 5884 5885 5885 5885 5885 5886 5886 5886 5886 5886 5886 5886
5721 5724 5727 5731 5735 5738 5742 5745 5750 5754 5758 5762 5766 5769 5772 5775 5778 5781 5783 5786 5789 5792 5795 5797 5800 5802 5805 5808 5811 5814 5817 5820 5823 5825 5828 5830 5833 5836 5838 5840 5843 5845 5847 5849 5851 5853 5855 5857 5858 5860 5861 5862 5864 5866 5867 5868 5869 5871 5872 5873 5874 5875 5876 5877 5877 5878 5879 5879 5880 5881 5882 5882 5883 5883 5883 5883 5884 5884 5884 5885 5885 5885 5885 5885 5885 5885 5885 5885
5718 5722 5725 5729 5733 5736 5740 5743 5748 5752 5756 5760 5764 5767 5770 5773 5776 5779 5782 5785 5788 5791 5793 5796 5798 5801 5804 5806 5809 5812 5815 5818 5821 5823 5826 5829 5831 5834 5837 5839 5841 5843 5846 5848 5850 5852 5853 5855 5857 5858 5860 5861 5863 5864 5865 5867 5868 5870 5871 5872 5873 5874 5875 5876 5877 5877 5878 5879 5879 5880 5881 5882 5882 5882 5883 5883 5883 5884 5884 5884 5884 5884 5885 5885 5885 5885 5884 5884
5715 5719 5723 5726 5730 5734 5738 5741 5745 5750 5754 5758 5762 5765 5769 5772 5775 5778 5781 5784 5787 5790 5792 5795 5797 5799 5802 5805 5807 5810 5813 5816 5818 5821 5824 5827 5829 5832 5835 5837 5840 5842 5844 5846 5848 5850 5852 5854 5855 5857 5859 5860 5862 5863 5864 5865 5867 5869 5870 5871 5872 5873 5874 5875 5876 5876 5877 5878 5879 5879 5880 5881 5882 5882 5882 5882 5883 5883 5883 5883 5883 5884 5884 5884 5884 5884 5884 5884
5713 5716 5720 5724 5727 5731 5735 5739 5743 5747 5752 5756 5760 5764 5767 5770 5774 5777 5780 5783 5785 5788 5791 5793 5795 5798 5800 5803 5806 5809 5811 5814 5817 5819 5822 5825 5828 5830 5833 5835 5838 5840 5842 5844 5846 5848 5850 5852 5854 5855 5857 5859 5860 5861 5863 5864 5866 5867 5869 5870 5871 5872 5873 5874 5875 5876 5876 5877 5878 5879 5880 5880 5881 5881 5882 5882 5882 5882 5882 5883 5883 5883 5883 5883 5883 5883 5883 5883
5710 5714 5717 5721 5724 5728 5733 5737 5741 5745 5750 5754 5758 5762 5765 5769 5772 5775 5778 5781 5784 5786 5789 5791 5794 5796 5799 5801 5804 5807 5809 5812 5815 5817 5820 5823 5826 5828 5831 5833 5836 5838 5840 5842 5844 5846 5848 5850 5852 5854 5855 5857 5859 5860 5861 5863 5865 5866 5867 5868 5870 5871 5872 5873 5874 5875 5875 5876 5877 5878 5879 5879 5880 5881 5881 5881 5881 5882 5882 5882 5882 5882 5882 5882 5882 5882 5882 5881
5706 5710 5714 5718 5722 5726 5730 5735 5739 5743 5747 5752 5756 5760 5763 5767 5770 5773 5776 5779 5782 5784 5787 5789 5792 5794 5797 5800 5802 5805 5808 5810 5813 5815 5818 5821 5824 5826 5829 5831 5833 5836 5838 5840 5842 5844 5846 5848 5850 5852 5853 5855 5857 5858 5860 5862 5863 5864 5866 5867 5868 5869 5870 5872 5873 5873 5874 5875 5876 5877 5878 5878 5879 5880 5880 5880 5881 5881 5881 5881 5881 5881 5881 5881 5881 5881 5880 5880
5703 5707 5711 5715 5719 5723 5728 5732 5737 5741 5745 5749 5754 5757 5761 5765 5768 5771 5774 5777 5779 5782 5785 5787 5790 5792 5795 5797 5800 5804 5806 5809 5811 5814 5816 5819 5822 5824 5827 5829 5831 5833 5835 5838 5840 5842 5844 5846 5848 5850 5852 5853 5855 5857 5858 5860 5861 5863 5864 5865 5867 5868 5869 5870 5871 5872 5873 5874 5875 5876 5876 5877 5878 5879 5879 5880 5880 5880 5880 5880 5881 5880 5880 5880 5880 5880 5879 5879
5700 5704 5709 5712 5716 5721 5725 5729 5734 5738 5743 5747 5751 5755 5758 5762 5765 5768 5771 5774 5777 5779 5782 5785 5787 5790 5792 5795 5799 5802 5804 5807 5810 5812 5814 5817 5819 5822 5824 5827 5829 5831 5833 5835 5837 5840 5842 5844 5846 5847 5849 5851 5853 5855 5857 5858 5859 5861 5862 5864 5865 5866 5868 5869 5870 5871 5872 5872 5873 5874 5875 5876 5877 5878 5878 5879 5879 5879 5879 5880 5880 5879 5879 5879 5879 5878 5878 5877
5698 5702 5706 5709 5714 5718 5722 5726 5731 5736 5740 5745 5748 5752 5755 5759 5762 5765 5768 5771 5774 5777 5780 5782 5785 5787 5790 5793 5797 5800 5802 5805 5807 5810 5812 5815 5817 5820 5822 5824 5827 5829 5831 5833 5835 5837 5839 5841 5843 5845 5847 5849 5851 5853 5854 5856 5857 5859 5860 5862 5863 5864 5866 5867 5868 5869 5870 5871 5872 5873 5874 5875 5876 5876 5877 5877 5878 5878 5878 5878 5878 5878 5878 5878 5877 5877 5876 5876
5695 5699 5703 5707 5711 5715 5720 5724 5728 5733 5737 5741 5745 5748 5752 5756 5759 5762 5766 5769 5771 5774 5777 5780 5782 5785 5788 5791 5795 5797 5800 5803 5805 5808 5810 5813 5815 5817 5820 5822 5824 5827 5829 5831 5833 5835 5837 5839 5841 5843 5845 5847 5848 5850 5852 5854 5855 5857 5858 5860 5861 5863 5864 5865 5866 5867 5868 5869 5870 5871 5872 5873 5874 5874 5875 5876 5876 5876 5877 5877 5877 5877 5876 5876 5876 5875 5875 5875
5692 5696 5700 5704 5708 5713 5717 5721 5725 5730 5734 5738 5741 5745 5748 5752 5756 5760 5763 5766 5768 5771 5774 5777 5780 5782 5785 5789 5793 5795 5798 5800 5803 5806 5808 5811 5813 5815 5818 5820 5822 5824 5826 5828 5831 5833 5834 5836 5838 5840 5842 5844 5846 5848 5850 5852 5853 5855 5856 5858 5860 5860 5862 5863 5864 5865 5866 5867 5868 5869 5870 5872 5872 5872 5873 5874 5874 5875 5875 5875 5875 5875 5875 5875 5874 5874 5873 5873
5689 5693 5697 5702 5706 5710 5714 5718 5722 5726 5730 5734 5737 5741 5745 5749 5753 5757 5760 5763 5766 5769 5772 5774 5777 5780 5783 5787 5790 5793 5796 5798 5800 5803 5806 5808 5811 5813 5815 5817 5820 5822 5824 5826 5828 5830 5832 5834 5836 5838 5840 5842 5844 5846 5848 5849 5851 5852 5853 5856 5857 5858 5859 5861 5862 5864 5864 5865 5866 5867 5868 5869 5870 5871 5871 5872 5872 5873 5873 5873 5873 5873 5873 5872 5872 5872 5871 5871
5686 5690 5694 5699 5703 5707 5711 5715 5719 5723 5726 5730 5734 5739 5743 5747 5751 5754 5757 5761 5764 5766 5769 5772 5776 5778 5782 5786 5788 5790 5792 5795 5798 5801 5803 5806 5808 5810 5812 5815 5817 5819 5821 5823 5825 5827 5829 5831 5834 5836 5838 5840 5842 5844 5844 5846 5848 5850 5852 5854 5855 5856 5857 5858 5861 5862 5861 5862 5864 5864 5866 5867 5868 5869 5870 5870 5870 5871 5872 5871 5871 5871 5871 5870 5870 5870 5870 5869
5682 5687 5691 5696 5700 5704 5708 5712 5715 5719 5723 5727 5732 5736 5740 5744 5748 5752 5755 5759 5762 5765 5768 5771 5773 5775 5779 5783 5785 5787 5789 5792 5795 5798 5801 5803 5805 5808 5810 5812 5814 5817 5819 5821 5823 5825 5827 5829 5831 5833 5835 5837 5839 5840 5841 5844 5847 5848 5850 5851 5852 5854 5855 5856 5858 5859 5859 5860 5861 5862 5863 5865 5866 5867 5868 5868 5868 5869 5870 5870 5870 5869 5869 5868 5867 5867 5867 5867
5679 5683 5688 5692 5697 5701 5704 5708 5712 5716 5720 5725 5729 5734 5738 5743 5746 5750 5754 5757 5759 5762 5764 5767 5770 5772 5776 5780 5782 5784 5787 5790 5793 5795 5798 5800 5803 5805 5808 5810 5812 5814 5816 5818 5821 5822 5824 5827 5829 5830 5832 5834 5836 5838 5840 5843 5844 5845 5847 5848 5850 5851 5852 5854 5856 5856 5856 5857 5859 5859 5860 5862 5865 5865 5865 5866 5866 5867 5868 5867 5868 5868 5867 5867 5866 5865 5864 5864
5675 5680 5685 5689 5694 5698 5701 5705 5709 5713 5718 5723 5728 5732 5737 5740 5744 5748 5751 5753 5756 5758 5761 5764 5767 5770 5773 5777 5779 5782 5784 5787 5790 5793 5795 5798 5800 5803 5805 5807 5809 5811 5813 5816 5818 5819 5821 5824 5825 5828 5830 5832 5834 5836 5838 5839 5841 5843 5844 5846 5847 5849 5849 5851 5852 5853 5854 5854 5856 5857 5856 5859 5862 5862 5863 5863 5863 5865 5865 5865 5866 5866 5865 5865 5864 5864 5863 5862
5672 5677 5681 5686 5690 5694 5698 5702 5706 5711 5716 5721 5726 5729 5733 5737 5741 5744 5746 5748 5751 5754 5757 5761 5764 5767 5770 5773 5777 5779 5781 5784 5787 5790 5793 5795 5797 5800 5803 5805 5807 5809 5811 5813 5815 5817 5819 5821 5823 5825 5828 5829 5831 5833 5834 5836 5839 5840 5841 5843 5845 5846 5846 5847 5849 5850 5851 5851 5852 5853 5853 5856 5859 5860 5860 5861 5861 5862 5863 5863 5863 5864 5863 5862 5861 5861 5860 5860
5668 5673 5677 5682 5686 5690 5695 5699 5703 5709 5714 5718 5721 5725 5730 5733 5736 5739 5741 5742 5745 5749 5752 5757 5761 5764 5766 5770 5774 5775 5778 5781 5784 5787 5790 5792 5795 5797 5800 5802 5804 5805 5808 5810 5812 5814 5816 5818 5820 5823 5824 5826 5827 5829 5832 5834 5836 5837 5839 5840 5842 5842 5843 5845 5846 5846 5847 5848 5849 5850 5850 5851 5855 5857 5858 5859 5860 5860 5860 5860 5861 5862 5861 5860 5859 5858 5857 5857
5665 5669 5674 5678 5682 5686 5691 5696 5701 5706 5709 5714 5718 5722 5726 5729 5731 5733 5735 5737 5741 5745 5748 5752 5756 5759 5763 5766 5770 5772 5775 5779 5782 5784 5787 5789 5792 5794 5796 5798 5800 5802 5805 5808 5809 5811 5812 5815 5817 5819 5822 5823 5824 5827 5829 5831 5833 5834 5836 5837 5838 5839 5841 5842 5842 5842 5843 5845 5846 5847 5846 5846 5850 5853 5855 5857 5858 5857 5857 5857 5859 5859 5859 5858 5857 5856 5855 5854
5661 5665 5670 5674 5678 5683 5687 5693 5698 5701 5705 5710 5713 5716 5720 5724 5726 5728 5731 5732 5735 5739 5744 5748 5752 5756 5759 5762 5765 5769 5771 5774 5778 5781 5783 5786 5788 5791 5793 5795 5797 5799 5802 5804 5805 5807 5810 5812 5815 5817 5819 5820 5822 5824 5826 5828 5829 5830 5832 5834 5835 5836 5837 5838 5839 5839 5840 5841 5843 5845 5843 5840 5844 5850 5852 5854 5855 5855 5855 5855 5856 5857 5857 5857 5855 5853 5852 5851
5657 5661 5665 5669 5675 5680 5684 5689 5693 5697 5702 5706 5709 5712 5716 5719 5720 5723 5726 5725 5728 5735 5740 5745 5749 5753 5756 5759 5762 5765 5767 5771 5775 5777 5779 5782 5785 5787 5789 5792 5794 5795 5798 5801 5802 5805 5807 5810 5812 5815 5816 5817 5818 5820 5822 5824 5825 5826 5828 5830 5832 5833 5833 5834 5835 5836 5837 5838 5840 5842 5841 5837 5837 5844 5849 5851 5851 5851 5851 5853 5854 5854 5854 5854 5853 5851 5850 5849
5654 5657 5661 5666 5671 5676 5681 5685 5689 5694 5698 5700 5704 5708 5711 5713 5714 5717 5718 5717 5723 5732 5737 5741 5746 5750 5753 5755 5758 5762 5765 5769 5771 5773 5776 5779 5781 5783 5785 5788 5791 5792 5794 5797 5799 5802 5804 5806 5808 5810 5812 5813 5814 5816 5818 5820 5821 5823 5825 5826 5828 5829 5830 5830 5832 5833 5834 5835 5836 5837 5839 5836 5833 5838 5844 5846 5847 5847 5848 5850 5850 5851 5851 5851 5850 5848 5847 5847
5650 5654 5657 5661 5666 5671 5676 5681 5684 5689 5693 5695 5698 5701 5705 5706 5707 5710 5709 5710 5719 5728 5733 5738 5742 5746 5749 5752 5755 5759 5762 5765 5767 5770 5773 5775 5777 5780 5781 5784 5787 5788 5790 5794 5796 5798 5800 5802 5804 5807 5808 5809 5811 5813 5814 5816 5817 5819 5821 5822 5824 5825 5826 5827 5828 5830 5830 5831 5832 5833 5835 5834 5832 5834 5838 5838 5840 5843 5844 5845 5846 5846 5847 5846 5846 5845 5844 5844
5646 5650 5653 5657 5661 5666 5672 5676 5681 5685 5687 5689 5692 5695 5698 5698 5700 5701 5699 5706 5718 5725 5730 5735 5738 5743 5746 5749 5752 5755 5758 5760 5763 5766 5768 5770 5773 5775 5777 5780 5783 5785 5787 5790 5792 5794 5796 5798 5800 5803 5804 5806 5808 5809 5811 5812 5814 5816 5817 5818 5820 5821 5823 5823 5824 5826 5826 5827 5829 5829 5831 5833 5831 5831 5833 5833 5835 5837 5839 5840 5840 5840 5840 5840 5841 5841 5840 5840
5643 5646 5649 5654 5658 5662 5667 5670 5674 5678 5679 5681 5685 5688 5689 5690 5694 5692 5693 5710 5721 5720 5725 5731 5734 5739 5743 5746 5750 5752 5754 5756 5759 5761 5763 5766 5768 5771 5773 5776 5779 5781 5783 5785 5788 5790 5792 5794 5797 5799 5801 5803 5804 5806 5807 5808 5810 5812 5813 5814 5815 5816 5818 5819 5820 5822 5822 5823 5825 5825 5827 5829 5829 5830 5830 5829 5830 5833 5833 5833 5834 5834 5832 5833 5834 5835 5834 5834
5639 5642 5645 5649 5653 5657 5661 5663 5668 5670 5672 5675 5678 5680 5682 5683 5683 5683 5696 5714 5715 5712 5722 5729 5733 5738 5740 5742 5745 5747 5749 5752 5755 5758 5760 5762 5764 5767 5771 5773 5776 5778 5780 5782 5785 5787 5789 5791 5793 5795 5797 5799 5800 5802 5803 5804 5806 5808 5809 5810 5811 5812 5814 5815 5816 5817 5817 5820 5821 5821 5822 5824 5826 5829 5829 5825 5826 5829 5830 5828 5828 5827 5826 5826 5828 5828 5828 5827
5634 5638 5641 5644 5648 5652 5655 5658 5661 5663 5666 5670 5671 5672 5675 5674 5674 5684 5701 5711 5706 5709 5722 5728 5731 5735 5735 5736 5739 5742 5745 5747 5751 5754 5756 5758 5761 5764 5767 5769 5773 5774 5776 5779 5781 5783 5784 5786 5788 5790 5792 5794 5796 5798 5799 5801 5802 5803 5805 5805 5806 5808 5808 5809 5811 5811 5813 5816 5817 5816 5817 5819 5823 5826 5827 5825 5825 5825 5825 5824 5822 5822 5821 5822 5824 5824 5823 5822
5629 5634 5637 5640 5644 5646 5649 5652 5654 5656 5660 5662 5663 5665 5666 5665 5674 5689 5701 5705 5704 5710 5720 5723 5726 5728 5728 5731 5735 5737 5740 5743 5746 5748 5751 5753 5755 5759 5762 5765 5768 5770 5772 5774 5775 5778 5779 5781 5784 5786 5788 5790 5792 5794 5795 5796 5798 5799 5800 5800 5801 5804 5804 5804 5805 5806 5808 5811 5812 5813 5814 5815 5819 5822 5823 5824 5825 5823 5821 5820 5819 5819 5817 5817 5818 5818 5819 5818
5624 5628 5632 5636 5639 5640 5643 5646 5648 5651 5653 5654 5656 5657 5657 5663 5678 5691 5698 5700 5702 5708 5715 5718 5721 5722 5723 5725 5727 5731 5735 5738 5741 5743 5745 5749 5752 5756 5759 5762 5765 5767 5768 5770 5772 5774 5776 5777 5780 5782 5784 5786 5787 5788 5790 5791 5793 5795 5795 5795 5798 5801 5800 5799 5800 5802 5803 5804 5806 5809 5810 5813 5816 5817 5819 5820 5821 5820 5818 5817 5817 5817 5815 5814 5813 5813 5813 5813
5617 5621 5626 5631 5634 5636 5638 5641 5644 5645 5646 5648 5648 5649 5655 5668 5684 5693 5696 5696 5698 5705 5709 5709 5712 5714 5715 5717 5721 5726 5730 5733 5736 5738 5741 5746 5749 5752 5755 5758 5761 5762 5764 5767 5767 5769 5771 5773 5775 5778 5780 5782 5783 5783 5785 5786 5788 5790 5790 5791 5795 5796 5795 5795 5796 5797 5797 5797 5801 5805 5806 5810 5813 5814 5816 5817 5816 5815 5814 5814 5813 5812 5811 5811 5810 5809 5808 5807
5612 5617 5622 5626 5629 5631 5633 5636 5638 5639 5641 5641 5641 5647 5659 5673 5685 5689 5687 5687 5691 5699 5702 5701 5704 5708 5709 5713 5717 5722 5727 5729 5730 5732 5737 5741 5743 5747 5752 5754 5756 5758 5761 5763 5762 5763 5766 5768 5770 5772 5774 5776 5778 5778 5779 5781 5783 5785 5786 5788 5790 5790 5790 5790 5791 5792 5793 5792 5796 5800 5802 5806 5809 5810 5812 5813 5812 5811 5811 5809 5808 5807 5806 5806 5807 5806 5804 5803
5608 5612 5616 5620 5623 5625 5628 5630 5631 5633 5635 5635 5638 5649 5660 5670 5679 5677 5674 5678 5686 5693 5695 5694 5697 5702 5704 5709 5714 5718 5722 5723 5725 5729 5732 5734 5738 5744 5748 5749 5751 5754 5756 5757 5756 5758 5760 5762 5764 5767 5769 5771 5773 5773 5774 5777 5779 5780 5782 5784 5785 5785 5786 5787 5786 5788 5789 5788 5791 5796 5798 5799 5804 5807 5808 5808 5808 5808 5807 5806 5805 5804 5802 5802 5803 5802 5800 5799
5602 5605 5609 5613 5617 5620 5622 5623 5625 5626 5626 5629 5637 5649 5659 5666 5671 5666 5664 5674 5681 5685 5688 5687 5689 5695 5699 5705 5710 5713 5717 5718 5721 5725 5727 5730 5735 5741 5744 5744 5747 5750 5751 5751 5750 5753 5755 5756 5758 5761 5764 5765 5766 5768 5771 5774 5774 5775 5777 5779 5780 5782 5782 5782 5782 5783 5785 5784 5785 5790 5791 5794 5801 5804 5804 5804 5804 5803 5802 5802 5801 5799 5799 5800 5800 5798 5796 5794
5595 5597 5602 5607 5610 5612 5615 5617 5617 5616 5618 5628 5640 5651 5657 5660 5660 5657 5659 5669 5675 5676 5680 5681 5684 5689 5694 5699 5703 5707 5710 5712 5716 5719 5721 5726 5731 5736 5738 5740 5742 5745 5746 5744 5744 5747 5749 5750 5752 5755 5757 5758 5761 5765 5768 5769 5769 5770 5772 5774 5776 5778 5777 5776 5777 5778 5779 5779 5780 5782 5783 5790 5799 5801 5799 5799 5798 5798 5797 5796 5795 5793 5794 5796 5796 5794 5792 5788
5590 5592 5597 5602 5603 5605 5607 5609 5610 5611 5617 5629 5639 5646 5648 5648 5650 5652 5656 5664 5668 5669 5674 5676 5678 5682 5687 5692 5696 5700 5704 5705 5709 5713 5715 5720 5726 5729 5733 5736 5737 5738 5738 5737 5739 5742 5744 5745 5747 5749 5750 5753 5757 5761 5762 5762 5763 5764 5766 5769 5771 5773 5772 5770 5770 5772 5773 5773 5775 5775 5775 5786 5797 5797 5796 5795 5793 5792 5791 5789 5789 5790 5790 5790 5789 5789 5787 5783
5586 5589 5594 5598 5598 5598 5600 5603 5606 5609 5615 5626 5634 5637 5639 5641 5646 5649 5652 5657 5660 5662 5667 5669 5671 5675 5679 5684 5690 5695 5697 5699 5703 5707 5710 5716 5722 5725 5727 5730 5731 5731 5732 5732 5735 5738 5739 5739 5740 5742 5745 5748 5750 5752 5754 5755 5757 5759 5761 5765 5767 5766 5765 5764 5763 5766 5767 5766 5770 5769 5767 5781 5794 5793 5791 5790 5787 5786 5784 5783 5785 5785 5785 5784 5782 5782 5780 5777
5582 5586 5590 5593 5594 5594 5594 5596 5600 5604 5611 5623 5628 5629 5631 5636 5640 5642 5647 5651 5653 5656 5661 5663 5665 5669 5673 5678 5683 5688 5691 5693 5697 5701 5706 5711 5716 5718 5720 5723 5724 5725 5726 5727 5729 5731 5732 5732 5734 5736 5738 5741 5742 5745 5748 5749 5752 5754 5756 5760 5760 5759 5759 5759 5758 5760 5758 5759 5766 5764 5760 5774 5788 5787 5785 5784 5781 5779 5779 5779 5780 5779 5779 5779 5778 5776 5773 5772
5578 5581 5584 5587 5590 5589 5588 5590 5595 5601 5610 5618 5619 5619 5625 5631 5633 5637 5641 5644 5646 5650 5655 5658 5662 5665 5668 5672 5676 5681 5685 5687 5690 5695 5701 5705 5708 5711 5714 5716 5717 5718 5721 5723 5724 5725 5725 5727 5729 5730 5730 5733 5736 5739 5742 5745 5747 5749 5752 5754 5754 5754 5754 5753 5754 5753 5750 5755 5762 5756 5753 5767 5780 5780 5778 5777 5774 5774 5774 5774 5774 5773 5772 5773 5772 5770 5768 5767
5572 5575 5577 5581 5583 5583 5583 5587 5594 5599 5605 5609 5609 5614 5621 5624 5627 5631 5635 5638 5641 5646 5650 5653 5657 5661 5664 5667 5670 5675 5679 5682 5686 5690 5694 5698 5702 5705 5707 5709 5711 5712 5715 5717 5718 5719 5719 5720 5722 5723 5723 5727 5731 5736 5739 5742 5742 5742 5745 5748 5748 5749 5748 5747 5748 5745 5744 5752 5755 5747 5747 5761 5772 5771 5769 5770 5769 5769 5769 5768 5768 5768 5767 5767 5765 5764 5763 5763
5564 5567 5570 5574 5576 5578 5580 5584 5589 5593 5597 5600 5603 5610 5614 5616 5622 5627 5630 5632 5636 5640 5644 5647 5652 5656 5658 5660 5663 5668 5673 5678 5682 5685 5688 5692 5697 5700 5701 5703 5706 5706 5708 5710 5711 5712 5712 5713 5715 5717 5718 5722 5728 5732 5734 5734 5734 5735 5739 5741 5740 5741 5741 5740 5739 5737 5741 5746 5744 5742 5745 5752 5761 5763 5761 5762 5764 5763 5763 5762 5761 5761 5762 5760 5759 5758 5758 5757
5556 5560 5564 5568 5570 5571 5574 5577 5581 5587 5592 5595 5599 5604 5608 5612 5616 5620 5623 5627 5631 5635 5638 5642 5646 5650 5652 5656 5660 5663 5668 5673 5675 5678 5682 5686 5690 5692 5693 5696 5699 5699 5701 5703 5704 5705 5705 5706 5710 5712 5714 5718 5724 5727 5725 5724 5726 5729 5731 5732 5733 5734 5734 5732 5729 5733 5740 5735 5731 5741 5745 5741 5749 5758 5755 5755 5756 5755 5756 5757 5754 5754 5754 5754 5754 5753 5751 5750
5549 5554 5559 5562 5563 5565 5569 5573 5578 5583 5588 5590 5594 5598 5602 5605 5608 5612 5618 5622 5625 5629 5632 5635 5641 5645 5649 5653 5656 5658 5662 5666 5668 5672 5677 5679 5681 5684 5686 5689 5691 5693 5695 5696 5696 5699 5699 5700 5705 5708 5708 5713 5718 5719 5718 5717 5719 5721 5722 5724 5726 5726 5726 5725 5725 5731 5734 5724 5723 5738 5740 5732 5740 5749 5747 5748 5750 5749 5751 5750 5747 5747 5746 5746 5746 5744 5743 5743
5542 5548 5552 5555 5557 5560 5566 5570 5573 5577 5581 5584 5588 5592 5595 5598 5603 5608 5613 5615 5618 5622 5625 5629 5636 5641 5644 5647 5649 5651 5654 5657 5660 5666 5670 5670 5672 5676 5679 5681 5684 5687 5689 5688 5690 5692 5692 5695 5701 5703 5702 5706 5711 5713 5713 5712 5712 5712 5713 5715 5719 5720 5720 5721 5722 5725 5725 5718 5719 5730 5730 5727 5736 5740 5739 5743 5745 5743 5744 5743 5741 5740 5739 5738 5738 5737 5736 5736
5535 5540 5545 5547 5550 5556 5561 5563 5566 5569 5573 5577 5581 5586 5590 5593 5598 5603 5605 5607 5612 5617 5619 5625 5631 5634 5637 5639 5642 5644 5647 5650 5654 5658 5660 5661 5664 5669 5671 5673 5678 5681 5681 5682 5683 5685 5686 5689 5695 5697 5694 5695 5703 5708 5708 5706 5705 5705 5705 5708 5712 5715 5715 5716 5717 5718 5717 5714 5717 5721 5720 5723 5733 5734 5733 5738 5739 5736 5735 5734 5732 5732 5732 5732 5732 5731 5730 5728
5528 5532 5536 5540 5544 5549 5553 5557 5560 5563 5566 5569 5575 5582 5586 5590 5595 5598 5600 5602 5607 5611 5615 5621 5625 5626 5628 5631 5635 5639 5641 5643 5647 5649 5652 5655 5658 5662 5664 5665 5670 5672 5673 5675 5676 5678 5680 5683 5688 5689 5684 5686 5698 5702 5699 5699 5698 5696 5699 5704 5707 5708 5708 5709 5709 5711 5711 5711 5713 5714 5712 5719 5729 5729 5726 5730 5729 5727 5727 5726 5724 5725 5726 5725 5726 5725 5723 5721
5521 5524 5528 5532 5536 5541 5546 5550 5552 5554 5559 5565 5572 5578 5581 5586 5590 5591 5592 5595 5600 5605 5610 5615 5617 5618 5619 5623 5629 5633 5634 5636 5640 5643 5645 5648 5651 5654 5655 5657 5661 5664 5665 5668 5669 5671 5673 5676 5681 5681 5676 5680 5692 5693 5691 5690 5685 5684 5694 5703 5704 5703 5702 5700 5700 5703 5707 5707 5706 5705 5707 5715 5722 5719 5718 5721 5720 5719 5721 5721 5719 5718 5719 5719 5719 5718 5716 5716